LSZGLSZB

Guest
Details From LSZG - Grenchen
To LSZB - Bern-Belp
Flight Number -
Tags generated
Created
Modified
Stats Distance 17 nm / 31 km
Max Altitude 1,600 ft / 488 m
Waypoints 3
Social Downloads 9
Likes 0
Share VATSIM

Download

Looking for another format? Having issues loading an existing format? Contact us
Advertisement - Login to hide

Notes

Basic altitude profile: - Ascent Rate: 2500ft/min - Ascent Speed: 250kts - Cruise Altitude: 35000ft - Cruise Speed: 420kts - Descent Rate: 1500ft/min - Descent Speed: 250kts Options: - Use NATs: yes - Use PACOTS: yes - Use low airways: yes - Use high airways: yes

Route

LSZG BADEP LSZB

ID Type Via Altitude Latitude Longitude Leg Dist Tot Dist Heading (true) Name
O LSZG APT - 0 ft / 0 m 47.18159˚ 7.41584˚ - 0 nm - Grenchen
BADEP FIX - 1,600 ft / 488 m 47.02722˚ 7.42444˚ 9 nm 9 nm 178° / 178° -
O LSZB APT - 0 ft / 0 m 46.91255˚ 7.49767˚ 7 nm 16 nm 156° / 156° Bern-Belp

Altitude Profile

Advertisement - Login to hide

LSZG

Details ICAO LSZG
Name Grenchen
Region Switzerland
Timezone Europe/Zurich (UTC+2.0)
Stats Elevation 1,411 ft / 430 m (AMSL)
Location 47.181591° 7.415841°
Runways 2
Magnetic Variation 2.113° E

METAR

LSZG 241220Z 22006KT 9999 FEW035 22/13 Q1018 NOSIG

Decode

TAF

Not found

Departure Runways

ID Width Length Bearing (true) Bearing (mag) Surface Threshold Offset Overrun Length
07C 75 ft / 23 m 3,273 ft / 998 m 65.56° 63.45° Asphalt 443 ft / 135 m 0 ft / 0 m
07L 98 ft / 30 m 1,637 ft / 499 m 66.08° 63.97° Grass 213 ft / 65 m 0 ft / 0 m
25C 75 ft / 23 m 3,273 ft / 998 m 245.56° 243.45° Asphalt 0 ft / 0 m 0 ft / 0 m
25R 98 ft / 30 m 1,637 ft / 499 m 246.08° 243.97° Grass 85 ft / 26 m 0 ft / 0 m

LSZB

Details ICAO LSZB (BRN)
Name Bern-Belp
Region Switzerland
Timezone Europe/Zurich (UTC+2.0)
Stats Elevation 1,672 ft / 510 m (AMSL)
Location 46.912547° 7.497672°
Runways 3
Magnetic Variation 2.135° E

METAR

LSZB 241220Z VRB03KT 9999 FEW025 SCT070 21/13 Q1018 NOSIG

Decode

TAF

Not found

Destination Runways

ID Width Length Bearing (true) Bearing (mag) Surface Threshold Offset Overrun Length
14 98 ft / 30 m 5,677 ft / 1,730 m 140.23° 138.09° Asphalt 656 ft / 200 m 0 ft / 0 m
14L 98 ft / 30 m 2,125 ft / 648 m 140.01° 137.87° Grass 0 ft / 0 m 0 ft / 0 m
14R 98 ft / 30 m 2,123 ft / 647 m 140.14° 138.00° Grass 0 ft / 0 m 0 ft / 0 m
32 98 ft / 30 m 5,677 ft / 1,730 m 320.24° 318.10° Asphalt 0 ft / 0 m 0 ft / 0 m
32L 98 ft / 30 m 2,123 ft / 647 m 320.14° 318.00° Grass 0 ft / 0 m 0 ft / 0 m
32R 98 ft / 30 m 2,125 ft / 648 m 320.01° 317.87° Grass 0 ft / 0 m 0 ft / 0 m

Approach Navaids

Runway Type Ident Frequency Range Bearing (true) Bearing (mag) Slope Elevation
14 Localiser IBE 110.10 MHz 18 nm / 33 km 140.24° 138.10° - 1,702 ft / 519 m (AMSL)
14 Glidescope IBE 110.10 MHz 10 nm / 19 km 140.24° 138.10° 4.00° 1,664 ft / 507 m (AMSL)
14 DME IBE 110.10 MHz 18 nm / 33 km - - - 1,684 ft / 513 m (AMSL)